#timestamp,LO_Frequency,Hit,StdDev 
1506740415.0,286046998.3,N
1506740415.9,286046998.3,N
1506740435.7,286046998.9,N
1506740455.6,286046996.6,Y
1506740475.4,286047000.5,P
1506740495.2,286046998.5,N
1506740515.1,286046998.3,N
1506740516.0,286046998.3,N
1506740535.8,286046997.1,Y
1506740555.6,286046999.6,P
1506740575.5,286046998.9,N
1506740595.3,286047000.9,N
1506740615.1,286046996.5,Y
1506740635.9,286047001.4,P
1506740655.7,286047001.9,N
1506740675.5,286047000.3,N
1506740695.4,286046999.0,N
1506740715.2,286046997.8,N
1506740735.0,286046995.1,Y
1506740735.9,286046995.1,P
1506740755.8,286046999.3,N
1506740775.6,286046994.9,N
1506740795.4,286046997.4,N
1506740815.3,286046997.6,N
1506740835.1,286046995.5,N
1506740836.0,286046995.5,N
1506740855.8,286046997.7,N
1506740875.7,286046998.3,N
1506740895.5,286046999.7,N
1506740915.3,286047000.6,N
1506740935.2,286046998.8,N
1506740955.9,286046998.6,N
1506740975.7,286047002.0,N
1506740995.6,286047001.8,N
1506741015.4,286047007.6,Y
1506741035.2,286047002.2,P
1506741055.1,286047000.5,N
1506741056.0,286047000.5,N
1506741075.8,286047001.7,N
1506741095.6,286047007.1,Y
1506741115.5,286047010.4,P
1506741135.3,286047014.3,N
1506741155.1,286047019.8,P
1506741175.9,286047022.9,Y
1506741195.7,286047013.4,P
1506741215.5,286047015.7,P
1506741235.4,286047023.2,P
1506741255.2,286047026.4,Y
1506741275.0,286047006.4,P
1506741275.9,286047006.4,N
1506741295.8,286047007.1,N
1506741315.6,286047008.8,N
1506741335.4,286047008.1,N
1506741355.3,286047011.1,Y
1506741375.1,286047000.1,P
1506741376.0,286047000.1,N
1506741395.8,286047000.4,N
1506741415.7,286047001.8,N
1506741435.5,286047005.5,N
1506741455.3,286047005.0,N
1506741475.1,286047003.9,N
1506741495.9,286047001.8,N
1506741515.7,286047003.7,N
1506741535.5,286047005.3,N
1506741555.4,286047006.7,N
1506741575.2,286047008.6,Y
1506741595.0,286047007.4,P
1506741595.9,286047007.4,P
1506741615.8,286047007.1,P
1506741635.6,286047008.5,Y
1506741655.4,286046998.2,P
1506741675.3,286047004.3,N
1506741695.1,286047004.6,N
1506741715.8,286047003.1,N
1506741735.7,286047005.1,N
1506741755.5,286047005.3,N
1506741775.3,286047000.3,N
1506741795.2,286047001.3,N
1506741815.9,286047003.8,N
1506741835.7,286047002.1,N
1506741855.6,286047000.9,N
1506741875.4,286046994.2,N
1506741895.2,286046989.7,Y
1506741915.1,286046981.5,P
1506741916.0,286046981.5,N
1506741935.8,286046981.3,N
1506741955.6,286046981.6,N
1506741975.5,286046982.8,N
1506741995.3,286046984.0,N
1506742015.1,286046982.3,N
1506742035.9,286046979.4,Y
1506742055.7,286046992.3,P
1506742075.5,286046992.3,N
1506742095.4,286046994.0,N
1506742115.2,286046991.2,N
1506742135.0,286046992.8,N
1506742135.9,286046992.8,N
1506742155.8,286046992.5,N
1506742175.6,286046991.5,Y
1506742195.4,286046993.7,P
1506742215.3,286046991.0,P
1506742235.1,286046989.8,P
1506742236.0,286046989.8,Y
1506742255.8,286046996.9,P
1506742275.7,286046997.7,N
1506742295.5,286046995.2,N
1506742315.3,286046995.7,N
1506742335.1,286046997.7,N
1506742355.9,286046996.1,N
1506742375.7,286046994.6,N
1506742395.5,286046990.5,Y
1506742415.4,286046991.8,P
1506742435.2,286046994.1,P
1506742455.0,286046994.0,P
1506742456.0,286046994.0,Y
1506742475.8,286046998.1,P
1506742495.6,286046998.5,N
1506742515.4,286047000.3,N
1506742535.3,286047001.3,N
1506742555.1,286047005.0,N
1506742575.8,286047010.8,Y
1506742595.7,286047011.7,P
1506742615.5,286047003.7,N
1506742635.3,286046999.4,N
1506742655.2,286046998.1,N
1506742675.9,286047000.8,N
1506742695.7,286046998.7,N
1506742715.6,286047000.9,N
1506742735.4,286047002.7,N
1506742755.2,286047004.1,N
1506742775.1,286047000.9,N
1506742776.0,286047000.9,N
1506742795.8,286047000.7,N
1506742815.6,286046999.9,N
1506742835.5,286047005.9,N
1506742855.3,286047006.7,N
1506742875.1,286047005.8,N
1506742895.8,286047002.2,N
1506742915.7,286047002.1,N
1506742935.5,286047000.0,N
1506742955.3,286046999.5,N
1506742975.2,286046998.7,N
1506742995.9,286047000.8,N
1506743015.7,286046997.6,N
1506743035.6,286046997.1,N
1506743055.4,286046997.9,N
1506743075.2,286046997.9,N
1506743095.1,286046995.4,N
1506743096.0,286046995.4,N
1506743115.8,286046995.7,N
1506743135.6,286046995.8,N
1506743155.5,286046999.1,N
1506743175.3,286047002.5,N
1506743195.1,286047006.1,N
1506743215.9,286047012.8,Y
1506743235.7,286047015.3,P
1506743255.5,286047016.7,N
1506743275.4,286047017.9,N
1506743295.2,286047020.9,N
1506743315.0,286047028.3,Y
1506743315.9,286047028.3,P
1506743335.8,286047011.6,N
1506743355.6,286047009.8,N
1506743375.4,286047009.9,N
1506743395.3,286047010.6,N
1506743415.1,286047011.0,N
1506743416.0,286047011.0,N
1506743435.8,286047014.6,N
1506743455.7,286047020.4,Y
1506743475.5,286047006.5,P
1506743495.3,286047011.8,P
1506743515.1,286047006.2,N
1506743535.9,286047009.0,N
1506743555.7,286047008.0,N
1506743575.6,286047009.2,Y
1506743595.4,286047001.0,P
1506743615.2,286047007.4,N
1506743635.0,286047008.4,N
1506743635.9,286047008.4,N
1506743655.8,286047006.7,N
1506743675.6,286047002.7,N
1506743695.4,286047002.5,N
1506743715.3,286047001.7,N
1506743735.1,286047007.6,N
1506743736.0,286047007.6,N
1506743755.8,286047004.8,N
1506743775.7,286047006.8,N
1506743795.5,286047008.5,Y
1506743815.3,286047001.7,P
1506743835.2,286047004.4,N
1506743855.9,286047001.5,N
1506743875.7,286047000.1,N
1506743895.6,286047003.4,N
1506743915.4,286047008.7,Y
1506743935.2,286047000.9,P
1506743955.1,286046994.9,P
1506743956.0,286046994.9,N
1506743975.8,286046992.8,N
1506743995.6,286046987.0,Y
